Location: Moscow
(55.7500°N, 37.5830°E)
Time: 22:45:28
(UTC+03:00)

A-11 Canister half - Pass Details

Date: 04 December 2021
Orbit: 1516 x 1684 km, 47.2° (Epoch: 16 January)

Event Time Altitude Azimuth Distance (km) Brightness Sun altitude
Rises 08:17:01 0° 229° (SW) 4,778 11.4 -3.3°
Reaches altitude 10° 08:20:15 10° 223° (SW) 3,818 11.0 -3.0°
Maximum altitude 08:29:11 43° 157° (SSE) 2,191 10.5 -2.0°
Drops below altitude 10° 08:38:23 10° 91° (E) 3,932 12.0 -1.0°
Sets 08:41:46 0° 85° (E) 4,932 12.4 -0.6°
